Location: *
(41.3833°S, 177.8333°W)
Time: 00:51:30
(UTC+00:00)

CZ-4C R/B - Pass Details

Date: 01 April 2020
Orbit: 637 x 1365 km, 63.4° (Epoch: 31 May)

Event Time Altitude Azimuth Distance (km) Brightness Sun altitude
Exits shadow 15:28:30 40° 0° (N) 1,799 3.6 -30.2°
Maximum altitude 15:31:24 62° 61° (ENE) 1,381 3.3 -29.7°
Drops below altitude 10° 15:38:32 10° 139° (SE) 2,977 5.8 -28.4°
Sets 15:41:03 0° 141° (SE) 3,838 6.5 -28.0°
